www.pogodaiklimat.ru

АРХИВ ПОГОДЫ в Майами

Время (UTC), дата Ветер
(напр.,м/с)
 
Видим.   Явления Облачность Т
(С)
Тd
(С)
f
(%)
Тe
(С)
Тes
(С)
Комфортность

P
(гПа)

Po
(гПа)
Тmin
(С)
Tmax
(С)
R
(мм)
SD
(см)
06:53 18.02 штиль  16 км    2/2 1050 м  +22.2  +20.0  87  +28  +28  душно  1022.4  1021.9         
07:53 18.02 СЗ  16 км    2/2 600 м  +22.2  +20.6  91  +29  +29  очень
душно 
1022.2  1021.9         
08:53 18.02 С  16 км    2/2 600 м  +22.0  +20.0  88  +28  +28  душно  1021.9  1021.5         
09:53 18.02 СЗ  16 км    5/5 600 м  +21.7  +20.6  93  +27  +27  душно  1022.2  1021.9         
10:53 18.02 С  16 км    2/2 600 м  +22.2  +18.9  82  +28  +28  душно  1022.4  1021.9         
11:53 18.02 С  16 км    2/2 750 м  +22.0  +18.0  78  +27  +27  душно  1023.0  1022.5  +21.1       
12:53 18.02 СВ  16 км    2/2 900 м  +22.8  +17.8  73  +28  +28  душно  1023.1  1022.5         
13:53 18.02 штиль  16 км    5/5 900 м  +23.9  +18.9  74  +29  +30  душно  1023.5  1023.2         
14:53 18.02 В  16 км    5/5 900 м  +27.0  +21.0  70  +34  +35  очень
душно 
1023.7  1023.2         
15:53 18.02 В  7
{9} 
16 км    8/8 750 м  +27.2  +20.0  65  +33  +34  очень
душно 
1023.9  1023.6         
16:53 18.02 В  16 км    8/8 900 м  +28.3  +18.9  57  +34  +34  очень
душно 
1023.6  1023.2         
17:53 18.02 В  16 км    5/5 900 м  +28.3  +18.9  57  +34  +35  очень
душно 
1022.8  1022.5         
18:53 18.02 В  16 км    8/8 1050 м  +28.3  +18.9  57  +34  +34  очень
душно 
1022.2  1021.9         
19:53 18.02 В  16 км    5/5 1110 м  +27.8  +17.8  55  +32  +33  душно  1021.8  1021.2         
20:53 18.02 В  16 км    5/5 1110 м  +27.2  +17.8  56  +31  +32  душно  1022.0  1021.5         
21:53 18.02 В  16 км    5/5 1020 м  +23.3  +18.3  73  +29  +29  душно  1022.2  1021.9         
22:53 18.02 В  16 км    2/2 990 м  +25.6  +18.3  64  +30  +31  душно  1022.6  1022.2         
23:53 18.02 В  16 км    ясно  +24.4  +18.3  69  +29  +29  душно  1022.7  1022.2         
00:53 19.02 В  16 км    2/2 750 м  +23.9  +18.3  71  +28  +28  душно  1023.3  1022.9         
01:53 19.02 В  16 км    2/2 750 м  +22.8  +18.3  76  +28  +28  душно  1023.8  1023.2         
02:53 19.02 В  16 км    2/2 750 м  +23.9  +18.3  71  +28  +28  душно  1023.9  1023.6         
03:53 19.02 В  16 км    2/2 900 м  +23.9  +18.3  71  +28  +28  душно  1024.0  1023.6         
04:53 19.02 В  16 км    2/2 750 м  +24.0  +18.0  69  +28  +28  душно  1023.7  1023.2         
05:53 19.02 В  16 км    2/2 900 м  +24.4  +17.8  67  +29  +29  душно  1023.3  1022.9         
06:53 19.02 В  16 км    5/5 840 м  +23.9  +18.3  71  +28  +28  душно  1023.0  1022.5         
07:53 19.02 В  16 км    2/2 840 м  +23.3  +17.8  71  +29  +29  душно  1022.9  1022.5         
08:53 19.02 В  16 км    2/2 930 м  +23.9  +17.2  66  +28  +28  душно  1022.9  1022.5         
09:53 19.02 В  16 км    2/2 930 м  +23.3  +17.8  71  +29  +29  душно  1023.1  1022.5         
10:53 19.02 В  16 км    2/2 930 м  +22.8  +17.8  73  +28  +28  душно  1023.3  1022.9         
11:53 19.02 В  16 км    2/2 900 м  +23.3  +17.8  71  +29  +29  душно  1023.7  1023.2         
12:53 19.02 В  16 км    5/5 900 м  +25.0  +18.9  69  +30  +30  душно  1024.3  1023.9         
13:53 19.02 В  16 км    10/10 750 м  +25.0  +20.0  74  +31  +31  очень
душно 
1024.7  1024.2         
14:43 19.02 В  10 км  слабый дождь, дымка  10/10 450 м  +23.3  +21.1  87  +31  +31  очень
душно 
           
14:53 19.02 ЮВ  11 км  слабый дождь  10/10 510 м  +22.2  +21.1  93  +29  +29  очень
душно 
1025.0  1024.6      0.5   
15:04 19.02 ЮВ  8
{11} 
3 км  дождь, дымка  10/10 510 м  +22.2  +21.1  93  +29  +29  очень
душно 
           
15:05 19.02 ЮВ  8
{11} 
3 км  дождь, дымка  10/10 390 м  +22.2  +21.1  93  +29  +29  очень
душно 
           
15:09 19.02 ЮВ  7
{11} 
5 км  дождь, дымка  10/10 210 м  +22.2  +21.1  93  +29  +29  очень
душно 
           
15:53 19.02 ЮВ  11 км  слабый дождь  10/10 480 м  +23.3  +21.7  91  +32  +32  очень
душно 
1025.5  1024.9         
16:53 19.02 ЮВ  16 км    8/8 450 м  +26.1  +22.8  82  +35  +36  очень
душно 
           
17:53 19.02 В  8
{13} 
16 км    8/8 720 м  +27.0  +21.0  70  +34  +34  очень
душно 
1024.3  1023.9  +22.2  +28.3     
18:48 19.02 В  16 км    8/8 750 м  +29.0  +20.0  58  +35  +35  очень
душно 
  1023.2         
18:53 19.02 В  10  16 км    8/8 750 м  +28.0  +20.0  62  +34  +34  очень
душно 
1023.5  1023.2         
19:53 19.02 В  9
{13} 
16 км    8/5 1020 м
[верхняя] 
+23.0  +18.0  73  +28  +29  душно  1023.1  1022.5         
20:53 19.02 В  8
{11} 
16 км    8/5 870 м
[средняя верхняя] 
+26.7  +19.4  64  +32  +32  очень
душно 
  1022.5         
21:53 19.02 В  8
{13} 
16 км    10/10 810 м  +25.6  +21.1  76  +32  +32  очень
душно 
  1022.9         
22:53 19.02 В  8
{12} 
16 км    8/8 870 м  +26.0  +21.0  74  +33  +33  очень
душно 
1023.4  1022.9         
23:53 19.02 В  16 км    10/10 780 м  +25.6  +21.1  76  +32  +32  очень
душно 
  1023.2  +22.8  +28.9     
00:53 20.02 В  16 км    10/10 660 м  +25.6  +21.1  76  +32  +32  очень
душно 
  1023.6         

 

Местоположение метеостанции Miami International Airport: широта 25.7906 долгота -80.3164 высота над уровнем моря 3 м.

В архиве по умолчанию представлена погода в Майами за последние 1-2 суток. Обновление информации о фактической погоде в базе происходит ежечасно! Архивные данные за месяц целиком и за предыдущие месяцы Вы можете получить, выбрав интересующий диапазон дат из раскрывающегося списка и нажав кнопку "Ввод!".

Внимание! Архив погоды МЕТАР в базе сайта в настоящее время начинается c 1 января 2013 г. Нет смысла пытаться выбрать более раннюю дату.

Внимание! Время в таблицах - всемирное. Для получения местного времени необходимо прибавить поправку, которая в Майами равна -5 ч.

Ветер - указаны скорость ветра в м/с и направление, откуда дует ветер: С - северный, СВ - северо-восточный, В - восточный, ЮВ - юго-восточный, Ю - южный, ЮЗ - юго-западный, З - западный, СЗ - северо-западный.
Видимость - горизонтальная дальность видимости в метрах или километрах. При видимости от 1 до 10 км при отсутствии осадков обычно наблюдается дымка, при ухудшении видимости до 1 км и менее - туман. В сухую погоду видимость может ухудшаться дымом, пылью или мглою.
Атмосферные явления - указаны явления, наблюдавшиеся в указанный момент времени.
Облачность - указаны через наклонную черту верхняя и нижняя облачность в баллах и высота нижней границы облаков в метрах. Внимание: облачность, как и прочие метеорологические величины в США измеряются автоматическими метеостанциями. Указанные значения в баллах носят условный характер и показывают процент времени, в течение которого, в среднем, лазерный луч высотомера отражался от облаков обратно.
T - Температура воздуха - температура, измеренная на высоте 2 м над землей.
Td - Температура точки росы - температура, при понижении до которой содержащийся в воздухе водяной пар достигнет насыщения.
f - Относительная влажность воздуха - влажноcть воздуха, измеренная на высоте 2 м над землей.
Te - Эффективная температура - температура, которую ощущает одетый по сезону человек в тени. Характеристика душности погоды. При расчете учитывается влияние влажности воздуха и скорости ветра на теплоощущения человека.
Tes - Эффективная температура на солнце - температура, которую ощущает человек, с поправкой на солнечный нагрев. Характеристика знойности погоды. Зависит от высоты солнца над горизонтом, облачности и скорости ветра. Ночью, в пасмурную погоду, а также при ветре 12 м/с и более поправка равна нулю.
P - Атмосферное давление - приведенное к уровню моря атмосферное давление.
Po - Атмосферное давление - измеренное на уровне метеостанции атмосферное давление.
Tmin - Минимальная температура - минимум температуры воздуха на высоте 2 м над землей.
Tmax - Максимальная температура - максимум температуры воздуха на высоте 2 м над землей.
R - Количество осадков - Количество выпавших осадков за 3 или 6 часов, мм.
SD - Снежный покров - Высота снежного покрова, см.